Weather Roundup
Issued by NWS Chicago, IL

Home | Current Version | Previous Version | Graphics & Text | Print | Product List | Glossary On
Versions: 1 2 3 4 5 6 7 8 9 10 11 12 13 14 15 16 17 18 19 20 21 22 23 24 25 26 27 28 29 30 31 32 33 34 35 36 37 38 39 40 41 42 43 44 45 46 47 48 49 50
000
NZUS59 KLOT 112310
HRRLOT

CHICAGO AREA WEATHER ROUNDUP
NATIONAL WEATHER SERVICE CHICAGO/ROMEOVILLE IL
600 PM CDT FRI JUL 11 2014

NOTE: "FAIR" INDICATES FEW OR NO CLOUDS BELOW 12,000 FEET WITH NO
SIGNIFICANT WEATHER AND/OR OBSTRUCTIONS TO VISIBILITY.

* THESE STATIONS ARE NOT UNDER NWS QUALITY CONTROL. THEY ALSO MAY NOT
  REPORT WEATHER SUCH AS PRECIPITATION OR FOG.

ILZ005-006-012>014-019>023-120000-
NORTHEAST ILLINOIS

CITY           SKY/WX    TMP DP  RH WIND       PRES   REMARKS
OHARE          CLOUDY    74  58  57 S3        30.10R
MIDWAY         CLOUDY    81  54  39 S9        30.10R HX  81
AURORA         CLOUDY    77  57  50 S9        30.11S
LANSING*       CLOUDY    76  54  45 S7        30.12S
JOLIET*        CLOUDY    77  56  47 S5        30.12F
WAUKEGAN       CLOUDY    72  56  57 S8        30.11R
DUPAGE AIRPORT CLOUDY    76  57  51 S8        30.10S
WHEELING       CLOUDY    76  57  51 S5        30.12R
KANKAKEE*      PTSUNNY   77  61  58 SE6       30.12F
MORRIS*        CLOUDY    78  62  58 S3        30.11S HX  80
LEWIS AIRPORT* CLOUDY    77  56  49 S7        30.11F
NORTHERLY IS     N/A     70  65  84 S7          N/A
$$

WIZ051-052-058>065-066-070>072-120000-
SOUTHEAST WISCONSIN

CITY           SKY/WX    TMP DP  RH WIND       PRES   REMARKS
MILWAUKEE      CLOUDY    72  52  49 S9        30.12R
KENOSHA*       CLOUDY    72  56  57 SE8       30.11R
RACINE*        CLOUDY    71  54  54 S7        30.13R
BURLINGTON     CLOUDY    72  56  56 CALM      30.12R
WAUKESHA       SUNNY     73  54  49 S12       30.12S
WEST BEND      PTSUNNY   73  52  46 S8        30.11S
$$

INZ001>003-010>013-019-020-120000-
NORTHWEST INDIANA

CITY           SKY/WX    TMP DP  RH WIND       PRES   REMARKS
GARY*          CLOUDY    79  54  41 SE6       30.12F
MICHIGAN CITY* NOT AVBL
RENSSELAER*    NOT AVBL
VALPARAISO     CLOUDY    76  58  53 S5        30.14F
$$

LMZ740>746-120000-
SOUTHERN LAKE MICHIGAN

STATION/POSITION TIME  SKY/WX   TEMP WIND        PRES    VSBY
                                AIR  DIR/SP/G
                 (UTC)          (F)  (DEG/KT/KT) (MB)    (MI)
HARRISON CRIB    2300            70  140/ 15/ 17   N/A
BURNHAM HARBOR   2300            70  170/  3/ 12   N/A
CALUMET HARBOR   2300            78  180/  6/  8 1020.3F
BURNS HARBOR     2300            78  170/ 10/ 20 1019.6
MICHIGAN CITY    2300            74  120/  3/  5   N/A
$$

ABBREVIATIONS USED IN REMARKS
   TC - TEMPERATURE IN CELSIUS
  WCI - WIND CHILL INDEX
   HX - HEAT INDEX
  VSB - VISIBILITY
$$



USA.gov is the U.S. government's official web portal to all federal, state and local government web resources and services.